Meling Ranch Airstrip

Jump to: basic info | weather | comments

Related pages: nearby airports | nearby navaids

Basic information (top)

Codes: MSJG
Location: lon 30.975328, lat -115.737877
Status: small_airport

Weather (top)

Current conditions for General Rodolfo Sánchez Taboada International Airport 103nm (190km) NNE (rec'd 2014/11/25 21:43Z):

MMML 252143Z 24003KT 10SM SKC 23/M17 A3034

Airport forecast for General Rodolfo Sánchez Taboada International Airport 103nm (190km) NNE (rec'd 2014/11/19 18:36Z):

TAF MMML 191647Z 1918/2018 32015G25KT P6SM SCT100 SCT100 
      BECMG 2003/2004 00000KT 
     FM201500 02010KT P6SM BKN240

Latest comments (top)

No comments yet for Meling Ranch Airstrip

More... (top)

See also NOTAMs and nearby airports and navaids, or visit the Meling Ranch Airstrip page at the main OurAirports website..